This is the latest recevied weather packets stored in our database for station/object HB9GPU-10. If no packets are shown the sender has not sent any weather packets the latest 10 day(s).
| Time | Temp. | Humidity | Pressure | Rain* | Wind** | Luminosity | Snow |
|---|---|---|---|---|---|---|---|
| 1788598172 | 24.44° C | 39% | 1027.2 hPa | - | - | - | - |
| 1788597272 | 24.44° C | 37% | 1027 hPa | - | - | - | - |
| 1788596372 | 24.44° C | 37% | 1026.8 hPa | - | - | - | - |
| 1788595472 | 24.44° C | 37% | 1026.8 hPa | - | - | - | - |
| 1788594603 | 23.89° C | 38% | 1026.6 hPa | - | - | - | - |
| 1788593672 | 24.44° C | 37% | 1026.3 hPa | - | - | - | - |
| 1788592771 | 24.44° C | 37% | 1026 hPa | - | - | - | - |
| 1788591871 | 24.44° C | 37% | 1025.7 hPa | - | - | - | - |
| 1788590971 | 23.89° C | 37% | 1025.8 hPa | - | - | - | - |
| 1788590071 | 23.89° C | 37% | 1026 hPa | - | - | - | - |
| 1788589171 | 23.33° C | 38% | 1026 hPa | - | - | - | - |
| 1788588270 | 23.89° C | 37% | 1025.9 hPa | - | - | - | - |
| 1788587370 | 23.33° C | 38% | 1025.7 hPa | - | - | - | - |
| 1788586470 | 23.89° C | 37% | 1025.5 hPa | - | - | - | - |
| 1788585580 | 23.33° C | 38% | 1025.4 hPa | - | - | - | - |
| 1788584670 | 23.33° C | 37% | 1025.1 hPa | - | - | - | - |
| 1788583770 | 24.44° C | 33% | 1024.7 hPa | - | - | - | - |
| 1788582869 | 22.78° C | 35% | 1024.8 hPa | - | - | - | - |
| 1788581969 | 23.89° C | 37% | 1024.6 hPa | - | - | - | - |
| 1788581069 | 23.33° C | 39% | 1024.5 hPa | - | - | - | - |
| 1788580169 | 23.89° C | 38% | 1024.3 hPa | - | - | - | - |
| 1788579268 | 23.33° C | 39% | 1024 hPa | - | - | - | - |
| 1788578368 | 23.33° C | 39% | 1023.9 hPa | - | - | - | - |
| 1788577467 | 23.89° C | 38% | 1023.6 hPa | - | - | - | - |
| 1788576567 | 23.89° C | 38% | 1023.5 hPa | - | - | - | - |
* Rain since midnight (hover to see other rain measurements)
** Current wind speed in m/s (hover to see current wind gust speed)